Location: Krasnoyarskiy
(51.1133°N, 71.6497°E)
Time: 23:55:36
(UTC+00:00)

Cosmos 1346 Rocket - Pass Details

Date: 27 September 2022
Orbit: 525 x 541 km, 81.2° (Epoch: 03 December)

Event Time Altitude Azimuth Distance (km) Brightness Sun altitude
Exits shadow 00:06:20 - 205° (SSW) 2,703 6.0 -10.3°
Rises 00:06:21 0° 205° (SSW) 2,691 6.0 -10.3°
Reaches altitude 10° 00:08:34 10° 211° (SSW) 1,802 5.1 -10.0°
Maximum altitude 00:12:25 49° 287° (WNW) 708 3.0 -9.4°
Drops below altitude 10° 00:16:17 10° 3° (N) 1,809 5.6 -8.8°
Sets 00:18:31 0° 9° (N) 2,703 6.6 -8.4°
